Woodward, OK

1:51 AM CDT on August 26, 2016 (GMT -0500)
West Woodward

Weather History for KWWR - December, 2013

Change the Weather History Date:

Monday, December 2, 2013

  Actual Average (KGAG) Record (KGAG)
Temperature  
Mean Temperature 50 °F -  
Max Temperature 69 °F 52 °F 78 °F (1951)
Min Temperature 32 °F 22 °F 3 °F (1985)
Degree Days  
Heating Degree Days 14    
Moisture  
Dew Point 30 °F    
Average Humidity 52    
Maximum Humidity 87    
Minimum Humidity 21    
Precipitation  
Precipitation 0.00 in - - ()
Sea Level Pressure  
Sea Level Pressure 29.75 in    
Wind  
Wind Speed 9 mph (SW)    
Max Wind Speed 14 mph    
Max Gust Speed -    
Visibility 10 miles    
Events      
Averages and records for this station are not official NWS values.
T = Trace of Precipitation, MM = Missing Value Source: NWS Daily Summary

Daily Weather History Graph

Daily Weather History Graph

Search for Another Location

Airport or City:

Trip Planner

Search our weather history database for the weather conditions in past years. The results will help you decide how hot, cold, wet, or windy it might be!

Date:

Astronomy

Dec. 02, 2013 Rise Set
Actual Time 7:32 AM CST 5:22 PM CST
Civil Twilight 7:04 AM CST 5:51 PM CST
Nautical Twilight 6:32 AM CST 6:23 PM CST
Astronomical Twilight 6:00 AM CST 6:54 PM CST
Moon 7:00 AM CST (12/2) 5:26 PM CST (12/2)
Length of Visible Light 10h 47m
Length of Day
9h 50m
Waning Crescent, 0% of the Moon is Illuminated
Dec 2
Waning Crescent
Dec 2
New
Dec 9
First Quarter
Dec 17
Full
Dec 25
Last Quarter

Hourly Weather History & Observations

Time (CST) Temp. Windchill Dew Point Humidity Pressure Visibility Wind Dir Wind Speed Gust Speed Precip Events Conditions
12:15 AM 37.4 °F 30.3 °F 30.2 °F 75% 29.90 in 10.0 mi SSW 10.4 mph - N/A   Clear
12:35 AM 37.4 °F 30.8 °F 30.2 °F 75% 29.89 in 10.0 mi SW 9.2 mph - N/A   Clear
12:55 AM 37.4 °F 30.3 °F 30.2 °F 75% 29.87 in 10.0 mi SSW 10.4 mph - N/A   Clear
1:15 AM 37.4 °F 30.8 °F 30.2 °F 75% 29.87 in 10.0 mi SW 9.2 mph - N/A   Clear
1:35 AM 37.4 °F 30.3 °F 30.2 °F 75% 29.86 in 10.0 mi SSW 10.4 mph - N/A   Clear
1:55 AM 39.2 °F 32.0 °F 30.2 °F 70% 29.86 in 10.0 mi SW 11.5 mph - N/A   Clear
2:15 AM 37.4 °F 30.3 °F 30.2 °F 75% 29.86 in 10.0 mi SW 10.4 mph - N/A   Clear
2:35 AM 33.8 °F 26.4 °F 28.4 °F 81% 29.85 in 10.0 mi WSW 9.2 mph - N/A   Clear
2:55 AM 32.0 °F 24.2 °F 28.4 °F 87% 29.85 in 10.0 mi SW 9.2 mph - N/A   Clear
3:15 AM 33.8 °F 25.3 °F 28.4 °F 81% 29.85 in 10.0 mi SW 11.5 mph - N/A   Clear
3:35 AM 35.6 °F 28.6 °F 30.2 °F 81% 29.84 in 10.0 mi SW 9.2 mph - N/A   Clear
3:55 AM 35.6 °F 28.0 °F 30.2 °F 81% 29.82 in 10.0 mi SSW 10.4 mph - N/A   Clear
4:15 AM 37.4 °F 30.3 °F 30.2 °F 75% 29.81 in 10.0 mi SW 10.4 mph - N/A   Clear
4:35 AM 35.6 °F 28.0 °F 30.2 °F 81% 29.81 in 10.0 mi SW 10.4 mph - N/A   Clear
4:55 AM 33.8 °F 26.4 °F 30.2 °F 87% 29.80 in 10.0 mi SW 9.2 mph - N/A   Clear
5:15 AM 33.8 °F 26.4 °F 30.2 °F 87% 29.79 in 10.0 mi SW 9.2 mph - N/A   Clear
5:35 AM 33.8 °F 25.3 °F 30.2 °F 87% 29.78 in 10.0 mi SSW 11.5 mph - N/A   Clear
5:55 AM 35.6 °F 27.1 °F 30.2 °F 81% 29.79 in 10.0 mi SW 12.7 mph - N/A   Clear
6:15 AM 35.6 °F 26.6 °F 30.2 °F 81% 29.78 in 10.0 mi SW 13.8 mph - N/A   Clear
6:35 AM 35.6 °F 27.5 °F 30.2 °F 81% 29.78 in 10.0 mi SW 11.5 mph - N/A   Clear
6:55 AM 35.6 °F 27.1 °F 30.2 °F 81% 29.79 in 10.0 mi WSW 12.7 mph - N/A   Clear
7:15 AM 33.8 °F 24.8 °F 30.2 °F 87% 29.79 in 10.0 mi SW 12.7 mph - N/A   Clear
7:35 AM 33.8 °F 24.8 °F 30.2 °F 87% 29.79 in 10.0 mi SW 12.7 mph - N/A   Clear
7:55 AM 35.6 °F 26.6 °F 30.2 °F 81% 29.79 in 10.0 mi WSW 13.8 mph - N/A   Clear
8:15 AM 35.6 °F 27.5 °F 30.2 °F 81% 29.79 in 10.0 mi WSW 11.5 mph - N/A   Clear
8:35 AM 37.4 °F 29.8 °F 30.2 °F 75% 29.79 in 10.0 mi WSW 11.5 mph - N/A   Clear
8:55 AM 41.0 °F 34.7 °F 30.2 °F 65% 29.79 in 10.0 mi WSW 10.4 mph - N/A   Clear
9:15 AM 41.0 °F 35.2 °F 30.2 °F 65% 29.79 in 10.0 mi WSW 9.2 mph - N/A   Clear
9:35 AM 44.6 °F 40.2 °F 32.0 °F 61% 29.79 in 10.0 mi WSW 8.1 mph - N/A   Clear
9:55 AM 50.0 °F - 30.2 °F 47% 29.79 in 10.0 mi WSW 8.1 mph - N/A   Clear
10:15 AM 51.8 °F - 30.2 °F 44% 29.79 in 10.0 mi WSW 5.8 mph - N/A   Clear
10:35 AM 53.6 °F - 30.2 °F 41% 29.79 in 10.0 mi West 5.8 mph - N/A   Clear
10:55 AM 57.2 °F - 30.2 °F 36% 29.79 in 10.0 mi WNW 9.2 mph - N/A   Clear
11:15 AM 59.0 °F - 30.2 °F 34% 29.79 in 10.0 mi NW 5.8 mph - N/A   Clear
11:35 AM 60.8 °F - 30.2 °F 31% 29.78 in 10.0 mi NW 10.4 mph - N/A   Clear
11:55 AM 62.6 °F - 30.2 °F 30% 29.76 in 10.0 mi NW 6.9 mph - N/A   Clear
12:15 PM 64.4 °F - 30.2 °F 28% 29.76 in 10.0 mi NW 6.9 mph - N/A   Clear
12:35 PM 64.4 °F - 30.2 °F 28% 29.75 in 10.0 mi NNW 8.1 mph - N/A   Clear
12:55 PM 66.2 °F - 30.2 °F 26% 29.73 in 10.0 mi NW 8.1 mph - N/A   Clear
1:15 PM 68.0 °F - 30.2 °F 24% 29.72 in 10.0 mi North 8.1 mph - N/A   Clear
1:35 PM 68.0 °F - 30.2 °F 24% 29.72 in 10.0 mi North 5.8 mph - N/A   Clear
1:55 PM 68.0 °F - 28.4 °F 23% 29.71 in 10.0 mi WNW 4.6 mph - N/A   Clear
2:15 PM 69.8 °F - 28.4 °F 21% 29.70 in 10.0 mi NW 5.8 mph - N/A   Clear
2:35 PM 69.8 °F - 28.4 °F 21% 29.69 in 10.0 mi NW 4.6 mph - N/A   Clear
2:55 PM 69.8 °F - 28.4 °F 21% 29.69 in 10.0 mi NW 3.5 mph - N/A   Clear
3:15 PM 68.0 °F - 28.4 °F 23% 29.69 in 10.0 mi West 3.5 mph - N/A   Clear
3:35 PM 68.0 °F - 28.4 °F 23% 29.68 in 10.0 mi Calm Calm - N/A   Clear
3:55 PM 68.0 °F - 28.4 °F 23% 29.68 in 10.0 mi Calm Calm - N/A   Clear
4:15 PM 66.2 °F - 28.4 °F 24% 29.69 in 10.0 mi Calm Calm - N/A   Clear
4:35 PM 64.4 °F - 30.2 °F 28% 29.69 in 10.0 mi West 3.5 mph - N/A   Clear
4:55 PM 62.6 °F - 30.2 °F 30% 29.69 in 10.0 mi SW 4.6 mph - N/A   Clear
5:15 PM 60.8 °F - 28.4 °F 29% 29.69 in 10.0 mi SW 5.8 mph - N/A   Clear
5:35 PM 57.2 °F - 28.4 °F 33% 29.70 in 10.0 mi SW 5.8 mph - N/A   Clear
5:55 PM 55.4 °F - 28.4 °F 36% 29.69 in 10.0 mi SW 6.9 mph - N/A   Clear
6:15 PM 53.6 °F - 28.4 °F 38% 29.69 in 10.0 mi SSW 8.1 mph - N/A   Clear
6:35 PM 53.6 °F - 28.4 °F 38% 29.69 in 10.0 mi SSW 8.1 mph - N/A   Clear
6:55 PM 53.6 °F - 28.4 °F 38% 29.69 in 10.0 mi SSW 8.1 mph - N/A   Clear
7:15 PM 55.4 °F - 28.4 °F 36% 29.67 in 10.0 mi South 8.1 mph - N/A   Clear
7:35 PM 53.6 °F - 28.4 °F 38% 29.67 in 10.0 mi South 8.1 mph - N/A   Clear
7:55 PM 53.6 °F - 28.4 °F 38% 29.67 in 10.0 mi South 10.4 mph - N/A   Clear
8:15 PM 55.4 °F - 28.4 °F 36% 29.67 in 10.0 mi South 9.2 mph - N/A   Clear
8:35 PM 53.6 °F - 28.4 °F 38% 29.66 in 10.0 mi South 9.2 mph - N/A   Clear
8:55 PM 55.4 °F - 28.4 °F 36% 29.65 in 10.0 mi South 9.2 mph - N/A   Clear
9:15 PM 53.6 °F - 28.4 °F 38% 29.65 in 10.0 mi South 6.9 mph - N/A   Clear
9:35 PM 50.0 °F - 28.4 °F 43% 29.65 in 10.0 mi South 8.1 mph - N/A   Clear
9:55 PM 50.0 °F - 30.2 °F 47% 29.65 in 10.0 mi South 8.1 mph - N/A   Clear
10:15 PM 50.0 °F - 28.4 °F 43% 29.65 in 10.0 mi SSE 6.9 mph - N/A   Clear
10:35 PM 48.2 °F - 30.2 °F 50% 29.65 in 10.0 mi SE 5.8 mph - N/A   Clear
10:55 PM 48.2 °F - 30.2 °F 50% 29.63 in 10.0 mi SSE 5.8 mph - N/A   Clear
11:15 PM 46.4 °F 42.4 °F 30.2 °F 53% 29.63 in 10.0 mi South 8.1 mph - N/A   Clear
11:35 PM 48.2 °F - 30.2 °F 50% 29.62 in 10.0 mi South 9.2 mph - N/A   Clear
11:55 PM 50.0 °F - 30.2 °F 47% 29.62 in 10.0 mi South 5.8 mph - N/A   Clear